[[{"header":{"parameterUnit":"m.s-1","parameterCategory":1,"la1":30.2991,"la2":30.254,"lo1":-89.0895,"lo2":-89.0444,"dy":0.0017,"dx":0.0017,"nx":28,"ny":28,"refTime":"2024-07-11T21:00:00:Z","depth":0,"parameterNumber":2,"parameterNumberName":"U-component_of_WINDS"},"data":[0,0,0,0,0,0,0,0,0,0,0,0,0,0,0,0,0,0,0,0,0,0,0,0,0,0,0,0,0,0,0,0,0,0,0,0,0,0,0,0,0,0,0,0,0,0,0,0,0,0,0,0,0,0,0,0,0,0,2.4831,2.4832,0,2.494,2.4942,2.4943,2.4938,2.4937,2.4935,2.4934,2.5046,2.5051,2.5055,0,0,0,0,0,0,0,0,0,0,0,0,0,2.4617,2.4621,2.4831,2.4832,2.4834,2.494,2.4942,2.4943,2.4938,2.4936,2.4935,2.4933,2.5045,2.505,2.5056,0,0,0,0,0,0,0,0,0,0,0,0,0,2.4717,2.4622,2.4831,2.4844,2.4846,2.494,2.4942,2.4944,2.4939,2.4936,2.4934,2.4932,2.5043,2.505,2.5056,2.5144,0,0,2.5077,2.508,0,0,0,0,0,0,0,0,2.4711,2.4725,2.4841,2.4843,2.4846,2.4923,2.4908,2.5011,2.4939,2.4904,2.4933,2.4931,2.5007,2.5017,2.5043,2.5149,2.5154,2.5077,2.5081,2.5084,2.5086,0,0,0,0,0,0,0,2.4704,2.472,2.4874,2.4842,2.4846,2.4844,2.4856,2.4927,2.4967,2.4907,2.4906,2.492,2.5008,2.5036,2.5045,2.5156,2.5077,2.5083,2.5087,2.509,2.5339,2.5342,0,0,0,0,0,0,2.4694,2.4714,2.4871,2.4877,2.4771,2.485,2.4863,2.4901,2.4966,2.4974,2.4921,2.4919,2.5026,2.5037,2.5049,2.5155,2.5084,2.509,2.5094,2.5336,2.534,2.5342,0,0,0,0,0,0,2.469,2.4708,2.4866,2.4796,2.4816,2.4856,2.4899,2.4904,2.4932,2.4978,2.4985,2.4942,2.5024,2.504,2.512,2.5159,2.5093,2.5099,2.5333,2.5337,2.5341,2.5368,0,0,0,0,0,0,2.4684,2.4707,2.474,2.4797,2.482,2.4935,2.4901,2.4908,2.4943,2.4941,2.4999,2.5007,2.5024,2.511,2.5127,2.5167,2.5105,2.533,2.5335,2.534,2.5363,2.5372,2.5379,0,0,0,0,0,2.4676,2.4744,2.4742,2.4761,2.4863,2.4938,2.4951,2.4969,2.4946,2.498,2.501,2.5005,2.5152,2.5118,2.5137,2.518,2.5328,2.5334,2.5339,2.536,2.537,2.5379,0,0,0,0,0,0,2.4691,2.4751,2.475,2.4838,2.4883,2.4937,2.498,2.498,2.5032,2.5027,2.5048,2.5061,2.5142,2.5169,2.513,2.5268,2.5237,2.5247,2.5246,2.5257,2.5264,2.5255,2.511,0,0,0,0,0,2.4705,2.4761,2.4811,2.4884,2.4906,2.4939,2.4973,2.4983,2.503,2.5049,2.5084,2.513,2.5187,2.5224,2.5278,2.5368,2.538,2.5407,2.5415,2.5421,2.5428,2.5477,2.5489,2.5362,2.5362,2.5362,0,0,2.4734,2.4773,2.4807,2.4888,2.4923,2.498,2.4955,2.5017,2.5059,2.5058,2.5136,2.5164,2.5216,2.5301,2.5341,2.5327,2.5467,2.5428,2.5433,2.5437,2.5484,2.5496,2.5507,2.5366,2.5365,2.5364,0,0,2.4814,2.4851,2.4915,2.4951,2.5005,2.5027,2.5043,2.5097,2.5115,2.5193,2.5193,2.5245,2.5342,2.5379,2.5411,2.5506,2.5503,2.5523,2.5564,2.5611,2.5621,2.563,2.5662,2.5673,2.5531,2.5531,2.5531,0,2.4843,2.4929,2.4948,2.501,2.5044,2.5046,2.5111,2.5146,2.5215,2.5239,2.5223,2.5344,2.538,2.5473,2.5496,2.5523,2.554,2.5516,2.5618,2.5627,2.5635,2.5667,2.5679,2.5533,2.5533,2.5533,2.5533,0,2.496,2.502,2.5065,2.5132,2.5172,2.5235,2.5263,2.5302,2.5309,2.5333,2.5412,2.5455,2.5518,2.5541,2.5549,2.5636,2.5625,2.5613,2.5583,2.5649,2.5679,2.5691,2.5536,2.5536,2.5535,2.5534,0,0,2.5052,2.5129,2.5145,2.5175,2.5235,2.5281,2.5345,2.5406,2.5438,2.5486,2.5539,2.5621,2.561,2.5646,2.5659,2.57,2.5771,2.5683,2.5685,2.5696,2.5867,2.5874,2.5888,2.577,2.5772,2.5774,2.5862,0,2.5138,2.5249,2.5268,2.5366,2.542,2.5423,2.5478,2.5521,2.5545,2.5595,2.5622,2.5679,2.5661,2.5683,2.5724,2.5753,2.5805,2.5748,2.5818,2.582,2.5803,2.5903,2.5911,2.5992,2.5874,2.5876,2.5877,0,2.5252,2.5303,2.5405,2.5457,2.5481,2.553,2.5587,2.5635,2.5684,2.5699,2.5739,2.5746,2.5812,2.578,2.5869,2.583,2.586,2.5879,2.5883,2.5888,2.5851,2.591,2.6018,2.6029,2.5896,2.5895,2.5893,0,2.5306,2.5401,2.5474,2.5499,2.5563,2.5597,2.5625,2.5671,2.5707,2.5757,2.578,2.5838,2.5869,2.5914,2.5936,2.5911,2.6024,2.5995,2.6037,2.6037,2.6059,2.6057,2.6172,2.6082,2.6082,2.6082,2.6082,0,2.5399,2.5461,2.5499,2.5543,2.5613,2.5635,2.5703,2.5731,2.5772,2.5822,2.5829,2.5876,2.5904,2.5955,2.5974,2.6044,2.6059,2.6072,2.6076,2.607,2.6068,2.6089,2.6083,2.6085,2.6084,2.6084,2.6083,0,2.547,2.5498,2.5578,2.5631,2.5646,2.5695,2.5741,2.5784,2.5808,2.5872,2.5888,2.5926,2.5986,2.6013,2.6088,2.6101,2.6181,2.6182,2.6164,2.6165,2.6205,2.62,2.6336,2.6354,2.6254,2.6255,2.6256,0,2.5526,2.5574,2.5632,2.5666,2.5695,2.575,2.5785,2.5809,2.5846,2.5905,2.5942,2.6002,2.6051,2.6148,2.6182,2.6239,2.624,2.6284,2.6249,2.6241,2.6239,2.6235,2.6239,2.6289,2.629,2.6291,2.6292,0,2.5621,2.5633,2.5684,2.5741,2.5784,2.5829,2.5874,2.5902,2.5932,2.5974,2.6035,2.6074,2.615,2.6209,2.6269,2.6298,2.63,2.6303,2.6316,2.6309,2.6296,2.6302,2.6179,2.6299,2.6299,2.6298,2.6298,2.6297,2.5685,2.5727,2.5775,2.5832,2.5868,2.591,2.5953,2.5983,2.6034,2.6097,2.6109,2.6174,2.6221,2.6301,2.6333,2.6384,2.6373,2.6392,2.6396,2.64,2.6401,2.629,2.6395,2.6395,2.6395,2.6395,2.6395,0,2.5779,2.581,2.5863,2.5925,2.597,2.5968,2.6018,2.6055,2.6112,2.6156,2.6205,2.6275,2.6333,2.6372,2.6431,2.6464,2.6467,2.6479,2.6475,2.6482,2.6408,2.6391,2.6476,2.6476,2.6476,2.6476,2.6476,2.6476,2.5833,2.5904,2.5921,2.601,2.6041,2.6104,2.6132,2.6171,2.6206,2.6284,2.6332,2.6357,2.6399,2.6461,2.6514,2.6524,2.6544,2.6557,2.6566,2.6496,2.6487,2.6479,2.6462,2.6561,2.6561,2.6635,2.6636,2.6636]},{"header":{"parameterUnit":"m.s-1","parameterCategory":1,"la1":30.2991,"la2":30.254,"lo1":-89.0895,"lo2":-89.0444,"dy":0.0017,"dx":0.0017,"nx":28,"ny":28,"refTime":"2024-07-11T21:00:00:Z","depth":0,"parameterNumber":3,"parameterNumberName":"V-component_of_WINDS"},"data":[0,0,0,0,0,0,0,0,0,0,0,0,0,0,0,0,0,0,0,0,0,0,0,0,0,0,0,0,0,0,0,0,0,0,0,0,0,0,0,0,0,0,0,0,0,0,0,0,0,0,0,0,0,0,0,0,0,0,0.8602,0.8602,0,0.857,0.8569,0.8569,0.8532,0.8532,0.8531,0.8531,0.8497,0.8497,0.8497,0,0,0,0,0,0,0,0,0,0,0,0,0,0.8633,0.8633,0.8602,0.8602,0.8601,0.857,0.8569,0.8569,0.8532,0.8532,0.8531,0.853,0.8497,0.8497,0.8496,0,0,0,0,0,0,0,0,0,0,0,0,0,0.8612,0.8633,0.8602,0.8579,0.8577,0.857,0.8569,0.8569,0.8532,0.8532,0.8531,0.853,0.8498,0.8497,0.8496,0.8509,0,0,0.8495,0.8494,0,0,0,0,0,0,0,0,0.8613,0.8611,0.8583,0.8581,0.8578,0.8554,0.8568,0.8549,0.8533,0.8549,0.853,0.853,0.8517,0.8515,0.851,0.8508,0.8506,0.8495,0.8494,0.8494,0.8494,0,0,0,0,0,0,0,0.8615,0.8612,0.8589,0.8583,0.858,0.8571,0.8567,0.8564,0.8538,0.8548,0.8545,0.8542,0.8515,0.8511,0.8509,0.8506,0.8495,0.8494,0.8494,0.8494,0.8513,0.8513,0,0,0,0,0,0,0.862,0.8614,0.859,0.8588,0.8594,0.8571,0.8567,0.8563,0.8538,0.8533,0.8542,0.854,0.8512,0.851,0.8508,0.8521,0.8494,0.8494,0.8493,0.8512,0.8513,0.8514,0,0,0,0,0,0,0.862,0.8618,0.8591,0.86,0.8596,0.8571,0.8567,0.8562,0.8558,0.8534,0.8529,0.8543,0.8512,0.8509,0.8509,0.852,0.8493,0.8493,0.8511,0.8512,0.8513,0.8548,0,0,0,0,0,0,0.8622,0.8618,0.8623,0.8601,0.8596,0.8593,0.8568,0.8562,0.8557,0.8554,0.8533,0.8529,0.8511,0.851,0.8509,0.8518,0.8492,0.851,0.8511,0.8513,0.8546,0.8551,0.8555,0,0,0,0,0,0.8623,0.8634,0.8623,0.8621,0.8601,0.8594,0.8591,0.857,0.8558,0.8562,0.8547,0.8529,0.8519,0.8511,0.8509,0.8518,0.8509,0.8511,0.8513,0.8544,0.855,0.8555,0,0,0,0,0,0,0.8658,0.863,0.8618,0.8622,0.8611,0.8588,0.8592,0.8577,0.8568,0.8566,0.854,0.8536,0.854,0.8529,0.852,0.853,0.8511,0.8513,0.8536,0.8541,0.8545,0.8548,0.8492,0,0,0,0,0,0.8666,0.8663,0.8639,0.8645,0.864,0.8617,0.8614,0.8599,0.8586,0.858,0.8565,0.8553,0.8547,0.8544,0.8537,0.8545,0.854,0.8551,0.8555,0.8558,0.856,0.8564,0.8568,0.852,0.852,0.852,0,0,0.8683,0.8667,0.8667,0.8652,0.8641,0.8638,0.8613,0.8611,0.8609,0.858,0.858,0.8568,0.8553,0.8558,0.8559,0.8549,0.8572,0.8561,0.8564,0.8563,0.8566,0.8571,0.8575,0.8521,0.8521,0.8521,0,0,0.8712,0.87,0.8704,0.8694,0.8678,0.8663,0.8664,0.8644,0.8635,0.8634,0.8613,0.861,0.86,0.859,0.8584,0.8611,0.8595,0.861,0.8632,0.8636,0.8639,0.8643,0.8652,0.8656,0.8612,0.8612,0.8612,0,0.8735,0.8729,0.8708,0.8707,0.8701,0.8676,0.8679,0.8671,0.8654,0.865,0.864,0.8628,0.8616,0.8618,0.8624,0.862,0.8621,0.8612,0.8641,0.8644,0.8646,0.8655,0.8659,0.8614,0.8613,0.8613,0.8613,0,0.8758,0.8755,0.876,0.8745,0.8739,0.8741,0.872,0.8718,0.8704,0.869,0.869,0.8675,0.8665,0.8665,0.8651,0.8665,0.8659,0.8645,0.8626,0.8653,0.8661,0.8664,0.8616,0.8616,0.8615,0.8615,0,0,0.8807,0.878,0.8782,0.8775,0.8756,0.8754,0.8755,0.8745,0.8744,0.8733,0.8733,0.8727,0.8714,0.8707,0.8692,0.8695,0.8718,0.8681,0.868,0.8688,0.8733,0.8743,0.8747,0.8707,0.8708,0.8708,0.8734,0,0.8832,0.8832,0.8813,0.8818,0.8816,0.8792,0.8793,0.8782,0.8769,0.8765,0.8752,0.8747,0.8731,0.8726,0.8729,0.8715,0.8726,0.8713,0.8707,0.8707,0.8711,0.8751,0.8762,0.8787,0.8737,0.8737,0.8738,0,0.8861,0.8853,0.8858,0.884,0.8838,0.8839,0.8829,0.8826,0.8813,0.8804,0.8797,0.878,0.878,0.8763,0.8763,0.8754,0.8751,0.8744,0.8744,0.8742,0.8723,0.875,0.8794,0.8798,0.8742,0.8742,0.8741,0,0.8896,0.8886,0.8888,0.8882,0.8861,0.8863,0.8854,0.8841,0.8836,0.8828,0.8825,0.8817,0.8812,0.8807,0.8788,0.8778,0.879,0.8772,0.8783,0.8783,0.8786,0.8786,0.8829,0.8785,0.8785,0.8785,0.8785,0,0.8926,0.893,0.8903,0.8904,0.8908,0.8887,0.8892,0.8881,0.8869,0.8868,0.8847,0.8847,0.8823,0.882,0.8806,0.8808,0.8806,0.8798,0.8795,0.88,0.8801,0.8797,0.8794,0.8786,0.8786,0.8785,0.8785,0,0.8964,0.8947,0.8947,0.8928,0.8923,0.8927,0.891,0.8911,0.8898,0.8897,0.8895,0.8875,0.887,0.8852,0.8842,0.8833,0.884,0.8832,0.8844,0.8841,0.8853,0.8852,0.8895,0.89,0.8853,0.8854,0.8854,0,0.8984,0.8987,0.8968,0.8966,0.8958,0.8955,0.895,0.893,0.8927,0.8913,0.8915,0.8909,0.8903,0.8896,0.8881,0.8874,0.8866,0.8882,0.8865,0.887,0.8866,0.8866,0.8866,0.8885,0.8886,0.8886,0.8887,0,0.9021,0.9012,0.9007,0.8999,0.8995,0.8987,0.8979,0.8978,0.8956,0.8953,0.8948,0.8944,0.8935,0.8929,0.8919,0.8911,0.8895,0.8892,0.8894,0.8899,0.8906,0.8902,0.8853,0.8891,0.8891,0.889,0.889,0.889,0.905,0.9051,0.9039,0.9034,0.9025,0.9018,0.9018,0.9005,0.9001,0.8992,0.8981,0.8977,0.8965,0.8951,0.8944,0.8941,0.8933,0.8936,0.8936,0.8937,0.894,0.8907,0.894,0.894,0.8939,0.8939,0.8939,0,0.9085,0.9076,0.9072,0.9061,0.9057,0.9044,0.9034,0.9032,0.9029,0.902,0.9014,0.9009,0.9004,0.8988,0.8981,0.8982,0.8975,0.8981,0.898,0.8979,0.8948,0.8947,0.8987,0.8987,0.8987,0.8987,0.8987,0.8987,0.9103,0.9105,0.9095,0.9093,0.9084,0.908,0.9076,0.907,0.9062,0.9057,0.9052,0.9043,0.9031,0.9023,0.9018,0.9013,0.9012,0.902,0.9013,0.8985,0.8981,0.8976,0.8975,0.902,0.902,0.9044,0.9044,0.9044]}]]